This is the latest recevied weather packets stored in our database for station/object DL1VED. If no packets are shown the sender has not sent any weather packets the latest 10 day(s).
| Time | Temp. | Humidity | Pressure | Rain* | Wind** | Luminosity | Snow |
|---|---|---|---|---|---|---|---|
| 1777726752 | 25.56° C | 38% | 1017.6 hPa | 0 mm | - | - | - |
| 1777725852 | 25.56° C | 37% | 1017.7 hPa | 0 mm | - | - | - |
| 1777724952 | 25.56° C | 37% | 1017.8 hPa | 0 mm | - | - | - |
| 1777724052 | 25.56° C | 100% | 1018.2 hPa | 0 mm | - | - | - |
| 1777723152 | 25.56° C | 100% | 1018.2 hPa | 0 mm | - | - | - |
| 1777722252 | 25° C | 100% | 1018.3 hPa | 0 mm | - | - | - |
| 1777721352 | 25° C | 100% | 1018.7 hPa | 0 mm | - | - | - |
| 1777720452 | 25° C | 35% | 1018.8 hPa | 0 mm | - | - | - |
| 1777719552 | 24.44° C | 100% | 1018.8 hPa | 0 mm | - | - | - |
| 1777718652 | 24.44° C | 100% | 1018.9 hPa | 0 mm | - | - | - |
| 1777717752 | 24.44° C | 100% | 1019 hPa | 0 mm | - | - | - |
| 1777716852 | 24.44° C | 100% | 1019.2 hPa | 0 mm | - | - | - |
| 1777715952 | 23.89° C | 100% | 1019.4 hPa | 0 mm | - | - | - |
| 1777715052 | 23.33° C | 38% | 1019.5 hPa | 0 mm | - | - | - |
| 1777714152 | 22.78° C | 100% | 1019.8 hPa | 0 mm | - | - | - |
| 1777713252 | 22.22° C | 100% | 1019.8 hPa | 0 mm | - | - | - |
| 1777712352 | 21.67° C | 37% | 1020.1 hPa | 0 mm | - | - | - |
| 1777711452 | 21.11° C | 100% | 1020.2 hPa | 0 mm | - | - | - |
| 1777710552 | 20.56° C | 100% | 1020.2 hPa | 0 mm | - | - | - |
| 1777709652 | 19.44° C | 100% | 1020.5 hPa | 0 mm | - | - | - |
| 1777708752 | 18.89° C | 100% | 1020.4 hPa | 0 mm | - | - | - |
| 1777707852 | 18.33° C | 100% | 1020.6 hPa | 0 mm | - | - | - |
| 1777706952 | 17.22° C | 51% | 1020.6 hPa | 0 mm | - | - | - |
| 1777706052 | 16.67° C | 52% | 1020.9 hPa | 0 mm | - | - | - |
| 1777705152 | 15.56° C | 54% | 1020.8 hPa | 0 mm | - | - | - |
* Rain latest hour (hover to see other rain measurements)
** Current wind speed in m/s (hover to see current wind gust speed)